Time,TemperatureF,DewpointF,PressureIn,WindDirection,WindDirectionDegrees,WindSpeedMPH,WindSpeedGustMPH,Humidity,HourlyPrecipIn,Conditions,Clouds,dailyrainin,SoftwareType,DateUTC
2013-11-14 00:03:00,47.7,23.6,30.06,ENE,75,3.1,3.1,38,0.00,,---,0.00,VWS V14.01,2013-11-14 08:03:00,
2013-11-14 00:08:00,48.2,23.0,30.06,ENE,73,3.1,4.0,37,0.00,,---,0.00,VWS V14.01,2013-11-14 08:08:00,
2013-11-14 00:13:00,48.4,23.2,30.06,ENE,62,6.3,6.7,37,0.00,,---,0.00,VWS V14.01,2013-11-14 08:13:00,
2013-11-14 00:18:00,48.6,23.3,30.06,ENE,76,4.0,4.0,37,0.00,,---,0.00,VWS V14.01,2013-11-14 08:18:00,
2013-11-14 00:24:00,48.7,23.5,30.06,ENE,68,5.8,6.3,37,0.00,,---,0.00,VWS V14.01,2013-11-14 08:24:00,
2013-11-14 00:30:00,48.9,23.6,30.06,ENE,76,5.4,5.4,37,0.00,,---,0.00,VWS V14.01,2013-11-14 08:30:00,
2013-11-14 00:35:00,48.7,23.5,30.06,East,98,4.0,4.0,37,0.00,,---,0.00,VWS V14.01,2013-11-14 08:35:00,
2013-11-14 00:41:00,48.4,23.2,30.06,East,87,0.0,3.1,37,0.00,,---,0.00,VWS V14.01,2013-11-14 08:41:00,
2013-11-14 00:47:00,47.5,23.5,30.06,East,87,0.0,0.0,38,0.00,,---,0.00,VWS V14.01,2013-11-14 08:47:00,
2013-11-14 00:53:00,46.9,23.0,30.06,ENE,74,0.0,0.0,38,0.00,,---,0.00,VWS V14.01,2013-11-14 08:53:00,
2013-11-14 00:58:00,46.6,22.7,30.06,ENE,74,0.0,0.0,38,0.00,,---,0.00,VWS V14.01,2013-11-14 08:58:00,
2013-11-14 01:03:00,46.2,22.3,30.06,ENE,74,0.0,0.0,38,0.00,,---,0.00,VWS V14.01,2013-11-14 09:03:00,
2013-11-14 01:08:00,45.9,22.0,30.06,NE,46,0.0,0.0,38,0.00,,---,0.00,VWS V14.01,2013-11-14 09:08:00,
2013-11-14 01:13:00,46.0,22.2,30.06,SE,130,3.1,3.6,38,0.00,,---,0.00,VWS V14.01,2013-11-14 09:13:00,
2013-11-14 01:19:00,46.2,22.3,30.06,NE,54,4.0,4.0,38,0.00,,---,0.00,VWS V14.01,2013-11-14 09:19:00,
2013-11-14 01:24:00,46.4,22.5,30.06,ENE,62,4.0,4.9,38,0.00,,---,0.00,VWS V14.01,2013-11-14 09:24:00,
2013-11-14 01:30:00,46.8,22.8,30.06,ENE,67,4.9,4.9,38,0.00,,---,0.00,VWS V14.01,2013-11-14 09:30:00,
2013-11-14 01:36:00,46.9,23.0,30.06,ENE,75,2.2,3.1,38,0.00,,---,0.00,VWS V14.01,2013-11-14 09:36:00,
2013-11-14 01:41:00,47.1,23.1,30.06,East,86,3.1,4.0,38,0.00,,---,0.00,VWS V14.01,2013-11-14 09:41:00,
2013-11-14 01:47:00,47.3,23.3,30.06,ENE,73,4.0,7.6,38,0.00,,---,0.00,VWS V14.01,2013-11-14 09:47:00,
2013-11-14 01:52:00,47.7,23.6,30.06,ENE,65,3.1,4.0,38,0.00,,---,0.00,VWS V14.01,2013-11-14 09:52:00,
2013-11-14 01:58:00,47.3,23.3,30.06,East,81,0.0,0.0,38,0.00,,---,0.00,VWS V14.01,2013-11-14 09:58:00,
2013-11-14 02:03:00,46.9,23.0,30.06,ENE,76,0.0,0.0,38,0.00,,---,0.00,VWS V14.01,2013-11-14 10:03:00,
2013-11-14 02:09:00,46.2,22.3,30.06,ENE,76,0.0,0.0,38,0.00,,---,0.00,VWS V14.01,2013-11-14 10:09:00,
2013-11-14 02:14:00,45.5,21.7,30.06,ENE,76,0.0,0.0,38,0.00,,---,0.00,VWS V14.01,2013-11-14 10:14:00,
2013-11-14 02:19:00,45.1,21.4,30.06,ENE,76,0.0,0.0,38,0.00,,---,0.00,VWS V14.01,2013-11-14 10:19:00,
2013-11-14 02:25:00,44.6,20.9,30.06,ENE,76,0.0,0.0,38,0.00,,---,0.00,VWS V14.01,2013-11-14 10:25:00,
2013-11-14 02:30:00,44.6,20.9,30.06,ENE,76,0.0,0.0,38,0.00,,---,0.00,VWS V14.01,2013-11-14 10:30:00,
2013-11-14 02:36:00,44.8,21.0,30.06,ENE,76,0.0,0.0,38,0.00,,---,0.00,VWS V14.01,2013-11-14 10:36:00,
2013-11-14 02:42:00,44.2,21.6,30.06,ENE,76,0.0,0.0,40,0.00,,---,0.00,VWS V14.01,2013-11-14 10:42:00,
2013-11-14 02:47:00,44.1,21.5,30.06,East,95,0.0,2.7,40,0.00,,---,0.00,VWS V14.01,2013-11-14 10:47:00,
2013-11-14 02:53:00,43.9,21.3,30.03,East,95,0.0,0.0,40,0.00,,---,0.00,VWS V14.01,2013-11-14 10:53:00,
2013-11-14 02:58:00,43.7,21.1,30.03,East,95,0.0,0.0,40,0.00,,---,0.00,VWS V14.01,2013-11-14 10:58:00,
2013-11-14 03:04:00,43.5,21.0,30.03,ESE,104,0.0,0.0,40,0.00,,---,0.00,VWS V14.01,2013-11-14 11:04:00,
2013-11-14 03:10:00,43.3,20.8,30.03,ESE,104,0.0,0.0,40,0.00,,---,0.00,VWS V14.01,2013-11-14 11:10:00,
2013-11-14 03:15:00,43.2,20.6,30.03,ESE,104,0.0,0.0,40,0.00,,---,0.00,VWS V14.01,2013-11-14 11:15:00,
2013-11-14 03:21:00,43.0,20.5,30.03,ESE,104,0.0,0.0,40,0.00,,---,0.00,VWS V14.01,2013-11-14 11:21:00,
2013-11-14 03:26:00,43.0,20.5,30.03,ESE,104,0.0,0.0,40,0.00,,---,0.00,VWS V14.01,2013-11-14 11:26:00,
2013-11-14 03:32:00,43.0,20.5,30.03,SE,135,3.1,3.1,40,0.00,,---,0.00,VWS V14.01,2013-11-14 11:32:00,
2013-11-14 03:37:00,43.0,20.5,30.06,SE,131,2.7,2.7,40,0.00,,---,0.00,VWS V14.01,2013-11-14 11:37:00,
2013-11-14 03:43:00,43.0,20.5,30.06,SE,140,0.0,0.0,40,0.00,,---,0.00,VWS V14.01,2013-11-14 11:43:00,
2013-11-14 03:48:00,42.6,20.1,30.06,SSW,206,3.6,4.0,40,0.00,,---,0.00,VWS V14.01,2013-11-14 11:48:00,
2013-11-14 03:55:00,42.4,20.0,30.06,South,186,0.0,0.0,40,0.00,,---,0.00,VWS V14.01,2013-11-14 11:55:00,
2013-11-14 04:00:00,42.3,19.8,30.06,South,185,0.0,0.0,40,0.00,,---,0.00,VWS V14.01,2013-11-14 12:00:00,
2013-11-14 04:05:00,42.1,19.7,30.03,South,183,0.0,0.0,40,0.00,,---,0.00,VWS V14.01,2013-11-14 12:05:00,
2013-11-14 04:11:00,42.1,19.7,30.03,ENE,68,0.0,0.0,40,0.00,,---,0.00,VWS V14.01,2013-11-14 12:11:00,
2013-11-14 04:16:00,42.8,20.3,30.03,ENE,64,0.0,0.0,40,0.00,,---,0.00,VWS V14.01,2013-11-14 12:16:00,
2013-11-14 04:21:00,42.4,20.0,30.03,East,79,0.0,0.0,40,0.00,,---,0.00,VWS V14.01,2013-11-14 12:21:00,
2013-11-14 04:27:00,43.3,20.8,30.03,East,88,2.7,3.1,40,0.00,,---,0.00,VWS V14.01,2013-11-14 12:27:00,
2013-11-14 04:32:00,43.5,21.0,30.03,NE,52,2.2,3.1,40,0.00,,---,0.00,VWS V14.01,2013-11-14 12:32:00,
2013-11-14 04:38:00,43.9,21.3,30.03,ENE,68,2.7,3.1,40,0.00,,---,0.00,VWS V14.01,2013-11-14 12:38:00,
2013-11-14 04:44:00,44.4,21.8,30.03,ENE,69,0.0,0.0,40,0.00,,---,0.00,VWS V14.01,2013-11-14 12:44:00,
2013-11-14 04:49:00,44.4,18.5,30.03,ENE,71,3.6,3.6,35,0.00,,---,0.00,VWS V14.01,2013-11-14 12:49:00,
2013-11-14 04:54:00,45.3,19.3,30.03,ENE,61,4.9,4.9,35,0.00,,---,0.00,VWS V14.01,2013-11-14 12:54:00,
2013-11-14 05:00:00,46.4,19.0,30.03,ENE,62,4.0,4.9,33,0.00,,---,0.00,VWS V14.01,2013-11-14 13:00:00,
2013-11-14 05:06:00,46.9,19.5,30.03,ENE,72,5.8,5.8,33,0.00,,---,0.00,VWS V14.01,2013-11-14 13:06:00,
2013-11-14 05:11:00,47.3,19.9,30.03,East,85,2.7,3.1,33,0.00,,---,0.00,VWS V14.01,2013-11-14 13:11:00,
2013-11-14 05:17:00,46.4,19.0,30.03,East,83,2.7,2.7,33,0.00,,---,0.00,VWS V14.01,2013-11-14 13:17:00,
2013-11-14 05:22:00,45.7,19.6,30.03,NE,49,5.8,6.3,35,0.00,,---,0.00,VWS V14.01,2013-11-14 13:22:00,
2013-11-14 05:27:00,45.7,19.6,30.03,ENE,68,4.0,4.0,35,0.00,,---,0.00,VWS V14.01,2013-11-14 13:27:00,
2013-11-14 05:33:00,46.2,20.1,30.03,ENE,76,2.7,4.0,35,0.00,,---,0.00,VWS V14.01,2013-11-14 13:33:00,
2013-11-14 05:39:00,46.4,19.0,30.03,ESE,111,2.7,3.1,33,0.00,,---,0.00,VWS V14.01,2013-11-14 13:39:00,
2013-11-14 05:45:00,45.1,19.1,30.03,ESE,111,0.0,0.0,35,0.00,,---,0.00,VWS V14.01,2013-11-14 13:45:00,
2013-11-14 05:51:00,44.2,18.3,30.03,SE,141,3.1,3.6,35,0.00,,---,0.00,VWS V14.01,2013-11-14 13:51:00,
2013-11-14 05:56:00,43.5,17.7,30.03,SE,141,0.0,2.7,35,0.00,,---,0.00,VWS V14.01,2013-11-14 13:56:00,
2013-11-14 06:02:00,42.8,17.1,30.03,SE,141,0.0,0.0,35,0.00,,---,0.00,VWS V14.01,2013-11-14 14:02:00,
2013-11-14 06:07:00,42.6,18.0,30.06,SE,141,0.0,0.0,37,0.00,,---,0.00,VWS V14.01,2013-11-14 14:07:00,
2013-11-14 06:13:00,42.6,18.0,30.06,SE,127,4.0,4.0,37,0.00,,---,0.00,VWS V14.01,2013-11-14 14:13:00,
2013-11-14 06:18:00,42.4,17.9,30.06,SSE,156,3.1,3.6,37,0.00,,---,0.00,VWS V14.01,2013-11-14 14:18:00,
2013-11-14 06:23:00,42.3,17.7,30.06,SSE,165,2.7,2.7,37,0.00,,---,0.00,VWS V14.01,2013-11-14 14:23:00,
2013-11-14 06:29:00,42.3,17.7,30.06,SSE,162,2.7,2.7,37,0.00,,---,0.00,VWS V14.01,2013-11-14 14:29:00,
2013-11-14 06:34:00,42.3,17.7,30.06,SE,133,2.7,3.1,37,0.00,,---,0.00,VWS V14.01,2013-11-14 14:34:00,
2013-11-14 06:40:00,42.3,17.7,30.06,ESE,117,0.0,0.0,37,0.00,,---,0.00,VWS V14.01,2013-11-14 14:40:00,
2013-11-14 06:45:00,42.8,17.1,30.06,NNW,339,0.0,0.0,35,0.00,,---,0.00,VWS V14.01,2013-11-14 14:45:00,
2013-11-14 06:51:00,43.3,17.5,30.06,South,179,2.7,2.7,35,0.00,,---,0.00,VWS V14.01,2013-11-14 14:51:00,
2013-11-14 06:53:00,43.5,17.7,30.06,SSE,150,4.9,4.9,35,0.00,,---,0.00,VWS V14.01,2013-11-14 14:53:00,
2013-11-14 07:00:00,44.6,18.7,30.06,SSE,148,0.0,3.6,35,0.00,,---,0.00,VWS V14.01,2013-11-14 15:00:00,
2013-11-14 07:06:00,45.9,19.8,30.03,SE,145,2.7,3.6,35,0.00,,---,0.00,VWS V14.01,2013-11-14 15:06:00,
2013-11-14 07:11:00,47.1,23.1,30.03,SE,144,0.0,3.1,38,0.00,,---,0.00,VWS V14.01,2013-11-14 15:11:00,
2013-11-14 07:17:00,48.9,23.6,30.03,South,169,0.0,0.0,37,0.00,,---,0.00,VWS V14.01,2013-11-14 15:17:00,
2013-11-14 07:22:00,50.4,24.9,30.03,NNE,29,8.1,8.1,37,0.00,,---,0.00,VWS V14.01,2013-11-14 15:22:00,
2013-11-14 07:28:00,55.8,28.5,30.03,NE,42,6.3,8.1,35,0.00,,---,0.00,VWS V14.01,2013-11-14 15:28:00,
2013-11-14 07:34:00,59.7,30.8,30.03,NE,52,6.3,8.3,33,0.00,,---,0.00,VWS V14.01,2013-11-14 15:34:00,
2013-11-14 07:40:00,61.5,32.4,30.03,ENE,68,5.8,8.7,33,0.00,,---,0.00,VWS V14.01,2013-11-14 15:40:00,
2013-11-14 07:46:00,63.0,29.4,30.03,NE,53,8.1,8.3,28,0.00,,---,0.00,VWS V14.01,2013-11-14 15:46:00,
2013-11-14 07:52:00,64.2,30.5,30.03,ENE,59,5.4,5.8,28,0.00,,---,0.00,VWS V14.01,2013-11-14 15:52:00,
2013-11-14 07:57:00,65.3,29.8,30.03,NE,49,6.3,8.7,26,0.00,,---,0.00,VWS V14.01,2013-11-14 15:57:00,
2013-11-14 08:03:00,66.2,30.6,30.03,NNE,14,5.4,8.7,26,0.00,,---,0.00,VWS V14.01,2013-11-14 16:03:00,
2013-11-14 08:09:00,67.3,31.5,30.06,ENE,68,7.6,10.1,26,0.00,,---,0.00,VWS V14.01,2013-11-14 16:09:00,
2013-11-14 08:15:00,68.2,32.3,30.06,NE,41,5.8,8.7,26,0.00,,---,0.00,VWS V14.01,2013-11-14 16:15:00,
2013-11-14 08:21:00,68.7,32.7,30.06,NE,49,5.4,8.7,26,0.00,,---,0.00,VWS V14.01,2013-11-14 16:21:00,
2013-11-14 08:26:00,69.4,33.3,30.06,East,90,10.1,10.1,26,0.00,,---,0.00,VWS V14.01,2013-11-14 16:26:00,
2013-11-14 08:31:00,70.3,32.4,30.06,East,92,8.3,10.1,24,0.00,,---,0.00,VWS V14.01,2013-11-14 16:31:00,
2013-11-14 08:38:00,70.9,32.8,30.06,ENE,65,5.8,10.1,24,0.00,,---,0.00,VWS V14.01,2013-11-14 16:38:00,
2013-11-14 08:44:00,71.4,33.3,30.06,ESE,118,10.5,12.8,24,0.00,,---,0.00,VWS V14.01,2013-11-14 16:44:00,
2013-11-14 08:49:00,71.8,33.6,30.06,ENE,77,15.9,15.9,24,0.00,,---,0.00,VWS V14.01,2013-11-14 16:49:00,
2013-11-14 08:55:00,72.1,33.9,30.06,ENE,70,10.1,10.1,24,0.00,,---,0.00,VWS V14.01,2013-11-14 16:55:00,
2013-11-14 09:00:00,72.5,34.2,30.06,East,96,10.1,10.5,24,0.00,,---,0.00,VWS V14.01,2013-11-14 17:00:00,
2013-11-14 09:06:00,72.9,34.5,30.06,East,96,12.3,12.3,24,0.00,,---,0.00,VWS V14.01,2013-11-14 17:06:00,
2013-11-14 09:11:00,73.2,34.8,30.06,ESE,117,6.3,12.8,24,0.00,,---,0.00,VWS V14.01,2013-11-14 17:11:00,
2013-11-14 09:17:00,73.4,33.1,30.06,ESE,102,9.6,12.8,23,0.00,,---,0.00,VWS V14.01,2013-11-14 17:17:00,
2013-11-14 09:23:00,73.6,33.3,30.06,ENE,73,8.3,11.0,23,0.00,,---,0.00,VWS V14.01,2013-11-14 17:23:00,
2013-11-14 09:29:00,73.8,33.4,30.06,SSE,148,8.1,8.1,23,0.00,,---,0.00,VWS V14.01,2013-11-14 17:29:00,
2013-11-14 09:35:00,74.1,33.7,30.06,ENE,73,7.6,10.1,23,0.00,,---,0.00,VWS V14.01,2013-11-14 17:35:00,
2013-11-14 09:40:00,74.7,34.2,30.06,East,85,8.7,11.9,23,0.00,,---,0.00,VWS V14.01,2013-11-14 17:40:00,
2013-11-14 09:46:00,74.7,34.2,30.06,East,91,7.6,13.2,23,0.00,,---,0.00,VWS V14.01,2013-11-14 17:46:00,
2013-11-14 09:51:00,74.8,34.3,30.06,ENE,75,6.3,11.0,23,0.00,,---,0.00,VWS V14.01,2013-11-14 17:51:00,
2013-11-14 09:57:00,75.2,34.6,30.06,SE,128,6.3,8.7,23,0.00,,---,0.00,VWS V14.01,2013-11-14 17:57:00,
2013-11-14 10:02:00,75.4,34.8,30.06,East,82,7.6,12.3,23,0.00,,---,0.00,VWS V14.01,2013-11-14 18:02:00,
2013-11-14 10:07:00,75.6,34.9,30.06,East,81,10.1,12.3,23,0.00,,---,0.00,VWS V14.01,2013-11-14 18:07:00,
2013-11-14 10:13:00,75.7,35.1,30.06,East,85,8.3,8.7,23,0.00,,---,0.00,VWS V14.01,2013-11-14 18:13:00,
2013-11-14 10:18:00,75.9,35.2,30.06,ENE,68,12.3,12.3,23,0.00,,---,0.00,VWS V14.01,2013-11-14 18:18:00,
2013-11-14 10:24:00,76.1,35.4,30.03,East,80,7.6,13.2,23,0.00,,---,0.00,VWS V14.01,2013-11-14 18:24:00,
2013-11-14 10:29:00,76.6,35.8,30.03,East,83,10.5,15.9,23,0.00,,---,0.00,VWS V14.01,2013-11-14 18:29:00,
2013-11-14 10:35:00,76.5,35.7,30.03,NE,35,10.1,15.0,23,0.00,,---,0.00,VWS V14.01,2013-11-14 18:35:00,
2013-11-14 10:40:00,76.5,35.7,30.03,NE,42,8.7,15.4,23,0.00,,---,0.00,VWS V14.01,2013-11-14 18:40:00,
2013-11-14 10:46:00,76.6,35.8,30.03,NE,54,15.0,15.0,23,0.00,,---,0.00,VWS V14.01,2013-11-14 18:46:00,
2013-11-14 10:51:00,77.0,36.1,30.03,ENE,66,11.4,11.4,23,0.00,,---,0.00,VWS V14.01,2013-11-14 18:51:00,
2013-11-14 10:56:00,77.4,36.4,30.03,ENE,73,9.6,11.9,23,0.00,,---,0.00,VWS V14.01,2013-11-14 18:56:00,
2013-11-14 11:02:00,77.7,36.7,30.03,NE,54,7.6,8.3,23,0.00,,---,0.00,VWS V14.01,2013-11-14 19:02:00,
2013-11-14 11:08:00,78.3,37.2,30.03,ENE,76,5.4,8.3,23,0.00,,---,0.00,VWS V14.01,2013-11-14 19:08:00,
2013-11-14 11:13:00,78.4,37.3,30.03,SSE,156,5.8,5.8,23,0.00,,---,0.00,VWS V14.01,2013-11-14 19:13:00,
2013-11-14 11:19:00,78.6,37.5,30.03,SSW,205,7.6,11.0,23,0.00,,---,0.00,VWS V14.01,2013-11-14 19:19:00,
2013-11-14 11:24:00,78.6,37.5,30.03,NE,34,4.0,4.0,23,0.00,,---,0.00,VWS V14.01,2013-11-14 19:24:00,
2013-11-14 11:29:00,78.3,37.2,30.03,NNW,346,5.8,6.3,23,0.00,,---,0.00,VWS V14.01,2013-11-14 19:29:00,
2013-11-14 11:34:00,77.9,36.9,30.00,NW,310,4.0,6.3,23,0.00,,---,0.00,VWS V14.01,2013-11-14 19:34:00,
2013-11-14 11:40:00,77.5,36.6,30.00,West,280,5.4,6.3,23,0.00,,---,0.00,VWS V14.01,2013-11-14 19:40:00,
2013-11-14 11:46:00,77.9,36.9,30.00,NW,309,6.3,10.5,23,0.00,,---,0.00,VWS V14.01,2013-11-14 19:46:00,
2013-11-14 11:52:00,77.9,36.9,30.00,NW,322,4.9,5.8,23,0.00,,---,0.00,VWS V14.01,2013-11-14 19:52:00,
2013-11-14 11:58:00,77.9,36.9,30.00,WNW,299,7.6,8.1,23,0.00,,---,0.00,VWS V14.01,2013-11-14 19:58:00,
2013-11-14 12:04:00,78.4,37.3,30.00,South,181,6.3,10.5,23,0.00,,---,0.00,VWS V14.01,2013-11-14 20:04:00,
2013-11-14 12:10:00,78.8,35.6,30.00,South,187,6.3,10.5,21,0.00,,---,0.00,VWS V14.01,2013-11-14 20:10:00,
2013-11-14 12:15:00,79.2,35.9,30.00,SSE,167,3.6,5.8,21,0.00,,---,0.00,VWS V14.01,2013-11-14 20:15:00,
2013-11-14 12:20:00,79.2,35.9,29.97,South,178,5.8,8.1,21,0.00,,---,0.00,VWS V14.01,2013-11-14 20:20:00,
2013-11-14 12:26:00,79.0,35.8,29.97,WSW,251,10.5,10.5,21,0.00,,---,0.00,VWS V14.01,2013-11-14 20:26:00,
2013-11-14 12:32:00,78.8,35.6,29.97,SW,232,8.7,10.5,21,0.00,,---,0.00,VWS V14.01,2013-11-14 20:32:00,
2013-11-14 12:38:00,78.4,37.3,29.97,WSW,258,10.5,13.2,23,0.00,,---,0.00,VWS V14.01,2013-11-14 20:38:00,
2013-11-14 12:44:00,79.0,35.8,29.97,West,266,8.7,10.1,21,0.00,,---,0.00,VWS V14.01,2013-11-14 20:44:00,
2013-11-14 12:50:00,78.8,35.6,29.97,SW,236,13.2,13.2,21,0.00,,---,0.00,VWS V14.01,2013-11-14 20:50:00,
2013-11-14 12:56:00,78.8,35.6,29.97,SW,233,11.4,11.4,21,0.00,,---,0.00,VWS V14.01,2013-11-14 20:56:00,
2013-11-14 13:01:00,78.8,35.6,29.97,SW,221,11.4,11.4,21,0.00,,---,0.00,VWS V14.01,2013-11-14 21:01:00,
2013-11-14 13:07:00,78.6,37.5,29.97,SW,231,8.1,13.2,23,0.00,,---,0.00,VWS V14.01,2013-11-14 21:07:00,
2013-11-14 13:12:00,78.6,37.5,29.97,WSW,257,10.1,12.8,23,0.00,,---,0.00,VWS V14.01,2013-11-14 21:12:00,
2013-11-14 13:18:00,78.4,37.3,29.97,WNW,297,8.7,12.8,23,0.00,,---,0.00,VWS V14.01,2013-11-14 21:18:00,
2013-11-14 13:23:00,78.3,37.2,29.97,WSW,239,6.3,10.5,23,0.00,,---,0.00,VWS V14.01,2013-11-14 21:23:00,
2013-11-14 13:28:00,78.3,37.2,29.97,WSW,243,13.2,13.2,23,0.00,,---,0.00,VWS V14.01,2013-11-14 21:28:00,
2013-11-14 13:34:00,78.1,37.0,29.97,West,262,8.3,8.3,23,0.00,,---,0.00,VWS V14.01,2013-11-14 21:34:00,
2013-11-14 13:40:00,77.9,36.9,29.97,WNW,298,5.4,5.4,23,0.00,,---,0.00,VWS V14.01,2013-11-14 21:40:00,
2013-11-14 13:45:00,77.4,36.4,29.97,West,265,5.8,10.1,23,0.00,,---,0.00,VWS V14.01,2013-11-14 21:45:00,
2013-11-14 13:50:00,77.2,36.3,29.94,WSW,245,12.8,13.2,23,0.00,,---,0.00,VWS V14.01,2013-11-14 21:50:00,
2013-11-14 13:56:00,77.2,36.3,29.94,WSW,241,15.4,15.4,23,0.00,,---,0.00,VWS V14.01,2013-11-14 21:56:00,
2013-11-14 14:01:00,77.2,36.3,29.94,West,271,11.0,11.0,23,0.00,,---,0.00,VWS V14.01,2013-11-14 22:01:00,
2013-11-14 14:07:00,77.2,36.3,29.94,WSW,240,12.3,12.8,23,0.00,,---,0.00,VWS V14.01,2013-11-14 22:07:00,
2013-11-14 14:12:00,77.2,36.3,29.94,WSW,249,8.7,12.8,23,0.00,,---,0.00,VWS V14.01,2013-11-14 22:12:00,
2013-11-14 14:17:00,77.0,36.1,29.94,West,268,3.6,6.3,23,0.00,,---,0.00,VWS V14.01,2013-11-14 22:17:00,
2013-11-14 14:23:00,76.6,35.8,29.94,West,276,11.0,12.8,23,0.00,,---,0.00,VWS V14.01,2013-11-14 22:23:00,
2013-11-14 14:29:00,76.5,35.7,29.94,WSW,256,10.5,15.0,23,0.00,,---,0.00,VWS V14.01,2013-11-14 22:29:00,
2013-11-14 14:34:00,76.1,35.4,29.94,SW,235,10.1,12.3,23,0.00,,---,0.00,VWS V14.01,2013-11-14 22:34:00,
2013-11-14 14:40:00,75.7,35.1,29.94,WSW,237,10.1,11.4,23,0.00,,---,0.00,VWS V14.01,2013-11-14 22:40:00,
2013-11-14 14:45:00,75.7,35.1,29.94,WSW,244,7.6,10.1,23,0.00,,---,0.00,VWS V14.01,2013-11-14 22:45:00,
2013-11-14 14:50:00,75.6,34.9,29.94,West,259,11.0,11.9,23,0.00,,---,0.00,VWS V14.01,2013-11-14 22:50:00,
2013-11-14 14:56:00,75.6,34.9,29.94,SSW,201,8.7,12.8,23,0.00,,---,0.00,VWS V14.01,2013-11-14 22:56:00,
2013-11-14 15:01:00,75.2,34.6,29.94,SW,236,8.1,13.2,23,0.00,,---,0.00,VWS V14.01,2013-11-14 23:01:00,
2013-11-14 15:07:00,74.8,34.3,29.94,WSW,247,11.9,12.8,23,0.00,,---,0.00,VWS V14.01,2013-11-14 23:07:00,
2013-11-14 15:12:00,74.3,33.9,29.94,West,261,8.3,10.5,23,0.00,,---,0.00,VWS V14.01,2013-11-14 23:12:00,
2013-11-14 15:18:00,74.1,33.7,29.94,WSW,244,11.0,15.4,23,0.00,,---,0.00,VWS V14.01,2013-11-14 23:18:00,
2013-11-14 15:23:00,73.8,33.4,29.94,WSW,246,12.8,14.5,23,0.00,,---,0.00,VWS V14.01,2013-11-14 23:23:00,
2013-11-14 15:29:00,73.4,33.1,29.94,WSW,246,8.3,9.2,23,0.00,,---,0.00,VWS V14.01,2013-11-14 23:29:00,
2013-11-14 15:35:00,73.0,34.7,29.94,WSW,251,10.5,11.0,24,0.00,,---,0.00,VWS V14.01,2013-11-14 23:35:00,
2013-11-14 15:41:00,72.7,34.4,29.94,West,272,10.5,12.8,24,0.00,,---,0.00,VWS V14.01,2013-11-14 23:41:00,
2013-11-14 15:46:00,72.5,34.2,29.94,WSW,248,8.3,8.7,24,0.00,,---,0.00,VWS V14.01,2013-11-14 23:46:00,
2013-11-14 15:52:00,72.0,33.8,29.94,WSW,247,8.7,8.7,24,0.00,,---,0.00,VWS V14.01,2013-11-14 23:52:00,
2013-11-14 15:58:00,71.8,33.6,29.94,WSW,252,11.0,11.0,24,0.00,,---,0.00,VWS V14.01,2013-11-14 23:58:00,
2013-11-14 16:03:00,71.4,33.3,29.94,West,263,8.7,8.7,24,0.00,,---,0.00,VWS V14.01,2013-11-15 00:03:00,
2013-11-14 16:09:00,71.2,33.1,29.94,West,259,8.1,8.1,24,0.00,,---,0.00,VWS V14.01,2013-11-15 00:09:00,
2013-11-14 16:14:00,70.9,32.8,29.94,WSW,245,8.1,11.0,24,0.00,,---,0.00,VWS V14.01,2013-11-15 00:14:00,
2013-11-14 16:19:00,70.3,32.4,29.94,West,265,5.4,8.3,24,0.00,,---,0.00,VWS V14.01,2013-11-15 00:19:00,
2013-11-14 16:25:00,69.8,31.9,29.94,West,267,5.4,6.3,24,0.00,,---,0.00,VWS V14.01,2013-11-15 00:25:00,
2013-11-14 16:31:00,69.1,33.0,29.94,West,271,5.8,7.6,26,0.00,,---,0.00,VWS V14.01,2013-11-15 00:31:00,
2013-11-14 16:36:00,68.4,32.4,29.94,WNW,294,5.8,6.3,26,0.00,,---,0.00,VWS V14.01,2013-11-15 00:36:00,
2013-11-14 16:42:00,68.0,32.1,29.94,WNW,303,7.2,7.2,26,0.00,,---,0.00,VWS V14.01,2013-11-15 00:42:00,
2013-11-14 16:48:00,67.3,31.5,29.94,WNW,290,4.0,4.9,26,0.00,,---,0.00,VWS V14.01,2013-11-15 00:48:00,
2013-11-14 16:54:00,66.7,31.0,29.94,WNW,294,4.9,5.4,26,0.00,,---,0.00,VWS V14.01,2013-11-15 00:54:00,
2013-11-14 16:59:00,66.0,30.4,29.94,NW,311,3.6,4.9,26,0.00,,---,0.00,VWS V14.01,2013-11-15 00:59:00,
2013-11-14 17:05:00,64.8,29.3,29.94,West,278,4.9,5.4,26,0.00,,---,0.00,VWS V14.01,2013-11-15 01:05:00,
2013-11-14 17:11:00,64.4,29.0,29.94,West,274,4.9,4.9,26,0.00,,---,0.00,VWS V14.01,2013-11-15 01:11:00,
2013-11-14 17:17:00,63.9,30.1,29.94,WNW,295,4.9,5.4,28,0.00,,---,0.00,VWS V14.01,2013-11-15 01:17:00,
2013-11-14 17:22:00,63.9,30.1,29.94,WNW,292,2.7,4.0,28,0.00,,---,0.00,VWS V14.01,2013-11-15 01:22:00,
2013-11-14 17:28:00,63.5,29.8,29.94,WNW,289,2.2,2.7,28,0.00,,---,0.00,VWS V14.01,2013-11-15 01:28:00,
2013-11-14 17:33:00,63.0,29.4,29.94,SE,137,2.7,3.1,28,0.00,,---,0.00,VWS V14.01,2013-11-15 01:33:00,
2013-11-14 17:38:00,62.4,28.9,29.94,ESE,122,3.1,3.6,28,0.00,,---,0.00,VWS V14.01,2013-11-15 01:38:00,
2013-11-14 17:44:00,61.9,28.4,29.94,ESE,122,4.0,4.0,28,0.00,,---,0.00,VWS V14.01,2013-11-15 01:44:00,
2013-11-14 17:50:00,60.8,27.5,29.94,SE,134,5.4,5.8,28,0.00,,---,0.00,VWS V14.01,2013-11-15 01:50:00,
2013-11-14 17:55:00,59.5,27.9,29.94,SE,125,5.8,5.8,30,0.00,,---,0.00,VWS V14.01,2013-11-15 01:55:00,
2013-11-14 18:00:00,58.5,27.0,29.94,ESE,115,2.2,3.1,30,0.00,,---,0.00,VWS V14.01,2013-11-15 02:00:00,
2013-11-14 18:05:00,57.2,25.9,29.94,North,353,0.0,0.0,30,0.00,,---,0.00,VWS V14.01,2013-11-15 02:05:00,
2013-11-14 18:12:00,56.1,24.9,29.94,North,0,0.0,0.0,30,0.00,,---,0.00,VWS V14.01,2013-11-15 02:12:00,
2013-11-14 18:17:00,55.6,24.5,29.94,NNW,335,0.0,0.0,30,0.00,,---,0.00,VWS V14.01,2013-11-15 02:17:00,
2013-11-14 18:22:00,54.3,24.7,29.94,NW,326,0.0,0.0,32,0.00,,---,0.00,VWS V14.01,2013-11-15 02:22:00,
2013-11-14 18:28:00,54.0,24.4,29.94,NW,326,0.0,0.0,32,0.00,,---,0.00,VWS V14.01,2013-11-15 02:28:00,
2013-11-14 18:34:00,53.6,24.1,29.94,NE,44,0.0,2.2,32,0.00,,---,0.00,VWS V14.01,2013-11-15 02:34:00,
2013-11-14 18:40:00,52.9,23.5,29.94,ESE,122,3.1,4.0,32,0.00,,---,0.00,VWS V14.01,2013-11-15 02:40:00,
2013-11-14 18:46:00,52.3,23.0,29.94,ESE,105,3.6,4.0,32,0.00,,---,0.00,VWS V14.01,2013-11-15 02:46:00,
2013-11-14 18:52:00,52.0,22.7,29.91,East,98,0.0,0.0,32,0.00,,---,0.00,VWS V14.01,2013-11-15 02:52:00,
2013-11-14 18:57:00,52.2,22.8,29.91,ENE,75,0.0,2.7,32,0.00,,---,0.00,VWS V14.01,2013-11-15 02:57:00,
2013-11-14 19:03:00,51.6,23.6,29.91,ENE,75,0.0,0.0,33,0.00,,---,0.00,VWS V14.01,2013-11-15 03:03:00,
2013-11-14 19:09:00,51.3,23.3,29.91,ENE,74,0.0,0.0,33,0.00,,---,0.00,VWS V14.01,2013-11-15 03:09:00,
2013-11-14 19:14:00,50.2,22.4,29.91,ESE,110,3.1,4.0,33,0.00,,---,0.00,VWS V14.01,2013-11-15 03:14:00,
2013-11-14 19:19:00,50.0,22.2,29.91,East,100,0.0,0.0,33,0.00,,---,0.00,VWS V14.01,2013-11-15 03:19:00,
2013-11-14 19:24:00,49.6,21.9,29.91,East,86,2.2,2.2,33,0.00,,---,0.00,VWS V14.01,2013-11-15 03:24:00,
2013-11-14 19:30:00,49.6,21.9,29.91,East,88,2.2,2.7,33,0.00,,---,0.00,VWS V14.01,2013-11-15 03:30:00,
2013-11-14 19:35:00,48.9,21.3,29.91,East,89,0.0,0.0,33,0.00,,---,0.00,VWS V14.01,2013-11-15 03:35:00,
2013-11-14 19:41:00,48.4,20.8,29.91,East,89,0.0,0.0,33,0.00,,---,0.00,VWS V14.01,2013-11-15 03:41:00,
2013-11-14 19:46:00,47.5,20.0,29.91,North,357,3.1,3.1,33,0.00,,---,0.00,VWS V14.01,2013-11-15 03:46:00,
2013-11-14 19:52:00,46.4,19.0,29.91,ENE,62,3.6,3.6,33,0.00,,---,0.00,VWS V14.01,2013-11-15 03:52:00,
2013-11-14 19:58:00,46.4,19.0,29.91,ENE,72,0.0,0.0,33,0.00,,---,0.00,VWS V14.01,2013-11-15 03:58:00,
2013-11-14 20:04:00,46.6,19.2,29.91,ENE,76,0.0,0.0,33,0.00,,---,0.00,VWS V14.01,2013-11-15 04:04:00,
2013-11-14 20:10:00,46.6,19.2,29.91,ENE,76,0.0,0.0,33,0.00,,---,0.00,VWS V14.01,2013-11-15 04:10:00,
2013-11-14 20:15:00,46.2,20.1,29.91,East,79,0.0,0.0,35,0.00,,---,0.00,VWS V14.01,2013-11-15 04:15:00,
2013-11-14 20:21:00,45.5,19.5,29.91,ENE,62,0.0,2.7,35,0.00,,---,0.00,VWS V14.01,2013-11-15 04:21:00,
2013-11-14 20:26:00,45.1,19.1,29.91,ENE,62,0.0,0.0,35,0.00,,---,0.00,VWS V14.01,2013-11-15 04:26:00,
2013-11-14 20:32:00,44.6,18.7,29.91,ENE,64,0.0,0.0,35,0.00,,---,0.00,VWS V14.01,2013-11-15 04:32:00,
2013-11-14 20:37:00,44.6,18.7,29.91,ENE,68,0.0,0.0,35,0.00,,---,0.00,VWS V14.01,2013-11-15 04:37:00,
2013-11-14 20:43:00,44.4,18.5,29.91,ENE,69,0.0,0.0,35,0.00,,---,0.00,VWS V14.01,2013-11-15 04:43:00,
2013-11-14 20:49:00,44.1,18.2,29.91,ENE,69,0.0,0.0,35,0.00,,---,0.00,VWS V14.01,2013-11-15 04:49:00,
2013-11-14 20:54:00,44.1,18.2,29.91,ENE,69,0.0,0.0,35,0.00,,---,0.00,VWS V14.01,2013-11-15 04:54:00,
2013-11-14 20:59:00,44.1,18.2,29.91,ENE,69,0.0,0.0,35,0.00,,---,0.00,VWS V14.01,2013-11-15 04:59:00,
2013-11-14 21:01:00,43.9,18.0,29.91,ENE,69,0.0,0.0,35,0.00,,---,0.00,VWS V14.01,2013-11-15 05:01:00,
2013-11-14 21:02:00,43.9,18.0,29.91,ENE,69,0.0,0.0,35,0.00,,---,0.00,VWS V14.01,2013-11-15 05:02:00,
2013-11-14 21:03:00,43.9,18.0,29.91,ENE,69,0.0,0.0,35,0.00,,---,0.00,VWS V14.01,2013-11-15 05:03:00,
2013-11-14 21:04:00,43.9,18.0,29.91,ENE,69,0.0,0.0,35,0.00,,---,0.00,VWS V14.01,2013-11-15 05:04:00,
2013-11-14 21:09:00,43.7,17.9,29.91,ENE,69,0.0,0.0,35,0.00,,---,0.00,VWS V14.01,2013-11-15 05:09:00,
2013-11-14 21:15:00,43.0,17.2,29.91,ENE,69,0.0,0.0,35,0.00,,---,0.00,VWS V14.01,2013-11-15 05:15:00,
2013-11-14 21:16:00,43.0,17.2,29.91,ENE,69,0.0,0.0,35,0.00,,---,0.00,VWS V14.01,2013-11-15 05:16:00,
2013-11-14 21:22:00,42.3,17.7,29.91,ENE,69,0.0,0.0,37,0.00,,---,0.00,VWS V14.01,2013-11-15 05:22:00,
2013-11-14 21:26:00,42.1,17.5,29.91,ENE,69,0.0,0.0,37,0.00,,---,0.00,VWS V14.01,2013-11-15 05:26:00,
2013-11-14 21:32:00,41.7,17.2,29.91,East,93,0.0,0.0,37,0.00,,---,0.00,VWS V14.01,2013-11-15 05:32:00,
2013-11-14 21:37:00,41.5,19.2,29.91,East,96,0.0,0.0,40,0.00,,---,0.00,VWS V14.01,2013-11-15 05:37:00,
2013-11-14 21:43:00,41.0,18.7,29.91,East,96,0.0,0.0,40,0.00,,---,0.00,VWS V14.01,2013-11-15 05:43:00,
2013-11-14 21:48:00,40.6,18.4,29.91,East,96,0.0,0.0,40,0.00,,---,0.00,VWS V14.01,2013-11-15 05:48:00,
2013-11-14 21:54:00,40.5,18.2,29.91,East,96,0.0,0.0,40,0.00,,---,0.00,VWS V14.01,2013-11-15 05:54:00,
2013-11-14 21:59:00,40.1,17.9,29.91,East,96,0.0,0.0,40,0.00,,---,0.00,VWS V14.01,2013-11-15 05:59:00,
2013-11-14 22:05:00,39.9,17.7,29.91,NNE,27,0.0,0.0,40,0.00,,---,0.00,VWS V14.01,2013-11-15 06:05:00,
2013-11-14 22:10:00,39.9,17.7,29.91,NNE,27,0.0,0.0,40,0.00,,---,0.00,VWS V14.01,2013-11-15 06:10:00,
2013-11-14 22:16:00,39.7,17.5,29.91,East,90,0.0,0.0,40,0.00,,---,0.00,VWS V14.01,2013-11-15 06:16:00,
2013-11-14 22:22:00,39.7,20.4,29.91,East,90,0.0,0.0,46,0.00,,---,0.00,VWS V14.01,2013-11-15 06:22:00,
2013-11-14 22:27:00,39.2,19.9,29.91,North,11,0.0,0.0,46,0.00,,---,0.00,VWS V14.01,2013-11-15 06:27:00,
2013-11-14 22:33:00,39.0,19.8,29.91,NE,44,0.0,0.0,46,0.00,,---,0.00,VWS V14.01,2013-11-15 06:33:00,
2013-11-14 22:38:00,39.0,19.8,29.88,NE,45,0.0,0.0,46,0.00,,---,0.00,VWS V14.01,2013-11-15 06:38:00,
2013-11-14 22:44:00,39.2,19.9,29.88,ESE,106,0.0,0.0,46,0.00,,---,0.00,VWS V14.01,2013-11-15 06:44:00,
2013-11-14 22:49:00,39.2,19.9,29.88,South,187,0.0,0.0,46,0.00,,---,0.00,VWS V14.01,2013-11-15 06:49:00,
2013-11-14 22:55:00,38.7,19.4,29.88,NW,313,0.0,0.0,46,0.00,,---,0.00,VWS V14.01,2013-11-15 06:55:00,
2013-11-14 23:00:00,38.5,21.8,29.88,NW,313,0.0,0.0,51,0.00,,---,0.00,VWS V14.01,2013-11-15 07:00:00,
2013-11-14 23:06:00,38.7,22.0,29.88,NW,313,0.0,0.0,51,0.00,,---,0.00,VWS V14.01,2013-11-15 07:06:00,
2013-11-14 23:12:00,38.7,22.0,29.88,NW,313,0.0,0.0,51,0.00,,---,0.00,VWS V14.01,2013-11-15 07:12:00,
2013-11-14 23:17:00,38.7,22.0,29.88,NW,316,0.0,0.0,51,0.00,,---,0.00,VWS V14.01,2013-11-15 07:17:00,
2013-11-14 23:23:00,38.7,22.0,29.88,NW,316,0.0,0.0,51,0.00,,---,0.00,VWS V14.01,2013-11-15 07:23:00,
2013-11-14 23:28:00,38.8,22.2,29.88,NW,316,0.0,0.0,51,0.00,,---,0.00,VWS V14.01,2013-11-15 07:28:00,
2013-11-14 23:33:00,39.0,22.3,29.88,West,271,3.1,3.1,51,0.00,,---,0.00,VWS V14.01,2013-11-15 07:33:00,
2013-11-14 23:39:00,39.4,22.7,29.88,SSW,211,0.0,0.0,51,0.00,,---,0.00,VWS V14.01,2013-11-15 07:39:00,
2013-11-14 23:44:00,39.6,22.8,29.88,SSW,210,0.0,0.0,51,0.00,,---,0.00,VWS V14.01,2013-11-15 07:44:00,
2013-11-14 23:50:00,39.6,22.8,29.88,SSW,210,0.0,0.0,51,0.00,,---,0.00,VWS V14.01,2013-11-15 07:50:00,
2013-11-14 23:55:00,39.4,22.7,29.88,SSW,210,0.0,0.0,51,0.00,,---,0.00,VWS V14.01,2013-11-15 07:55:00,